Location: Boubers-l�s-Hesmond
(50.4728°N, 1.9525°E)
Time: 19:26:45
(UTC+00:00)

Daily predictions for brighter satellites

Satellite Brightness Start Highest point End
(mag) Time Altitude Azimuth Time Altitude Azimuth Time Altitude Azimuth
BREEZE-M DEB (TANK) 4.5 19:52:36 10° W 19:56:19 79° S 20:07:48 10° ESE
Cosmos 1844 4.2 19:52:32 10° S 19:57:47 39° ESE 20:03:00 10° NE
BREEZE-M DEB (TANK) 4.1 19:53:37 10° W 19:57:50 51° S 20:04:41 10° ESE
Landsat 7 4.3 19:53:53 10° SE 19:58:23 45° ENE 20:02:57 10° N
Cosmos 968 Rocket 3.6 19:53:29 10° S 19:58:36 54° ESE 20:03:42 10° NNE
ATLAS 5 CENTAUR R/B 2.5 19:53:27 10° NW 19:58:45 63° NE 20:05:03 10° ESE
ATLAS 2AS CENTAUR R/B 4.3 19:56:14 10° NW 20:03:02 32° NNE 20:09:26 10° ENE
BREEZE M DEB (TANK) 4.0 20:00:21 10° WSW 20:04:04 65° SSE 20:16:05 10° ENE
Intercosmos 25 Rocket 4.3 19:57:41 10° N 20:05:08 87° E 20:09:34 10° S
Cosmos 1486 Rocket 4.2 20:00:59 10° S 20:06:08 52° ESE 20:11:19 10° NNE
Cosmos 1500 Rocket 4.1 20:03:19 10° NNW 20:07:42 63° W 20:12:00 10° S
Cosmos 1833 Rocket 4.0 20:03:24 10° NNW 20:08:21 30° NE 20:13:16 10° ESE
IGS 5A 3.6 20:05:29 10° SSE 20:09:33 59° ENE 20:13:39 10° N
Cosmos 2221 3.5 20:07:40 10° SSW 20:11:52 51° WNW 20:16:07 10° N
BREEZE-M R/B 3.1 20:10:26 10° SSW 20:12:31 21° SSE 20:14:29 10° E
S3M 4.1 20:06:26 10° S 20:12:41 62° E 20:18:55 10° NNE
USA 186 4.2 20:12:38 10° SW 20:14:07 14° W 20:15:35 10° WNW
Cosmos 1666 Rocket 4.1 20:11:25 10° N 20:15:40 44° ENE 20:19:51 10° SSE
USA 215 4.1 20:13:38 10° ENE 20:19:55 51° N 20:26:11 10° WNW
Cosmos 1933 3.6 20:19:04 10° S 20:22:59 51° E 20:26:55 10° NNE
USA 305 3.6 20:19:01 10° WNW 20:23:12 54° N 20:27:24 10° E
USA 245 3.2 20:23:48 14° SE 20:25:18 26° ENE 20:27:16 10° N
Cosmos 1242 Rocket 2.9 20:25:03 10° S 20:28:29 45° E 20:31:54 10° NNE
OBJECT-B 3.4 20:26:20 10° SW 20:28:47 20° W 20:31:15 10° NW
Cosmos 1553 Rocket 4.3 20:25:13 10° SSW 20:31:20 74° W 20:37:36 10° N
BREEZE M DEB (TANK) 2.1 20:25:42 10° W 20:31:51 79° S 20:34:07 12° E
Cosmos 1437 Rocket 3.0 20:28:35 10° SSW 20:32:27 74° WNW 20:36:25 10° N
Cosmos 773 Rocket 4.4 20:27:17 10° NNW 20:32:30 52° ENE 20:37:01 13° SE
Resurs 01 Rocket 1.9 20:30:41 10° S 20:35:07 69° WSW 20:39:35 10° NNW
Sich 1 3.3 20:33:42 10° NNW 20:38:02 72° W 20:42:21 10° S
Spot 2 Rocket 3.7 20:34:12 12° SE 20:38:45 57° ENE 20:43:41 10° N
COSMOS 2406 3.9 20:33:34 10° NNW 20:39:00 44° NE 20:43:43 13° ESE
SJ 16-02 3.3 20:38:19 11° ESE 20:39:22 12° E 20:41:05 10° ENE
Meteor 1-20 Rocket 4.3 20:35:23 10° NNW 20:41:04 79° W 20:46:35 10° S
Cosmos 2082 Rocket 3.5 20:36:43 10° NNW 20:41:35 29° NE 20:46:24 10° ESE
USA 306 3.4 20:38:10 10° WNW 20:42:23 58° N 20:46:37 10° E
CZ-4C R/B 3.1 20:37:08 10° NW 20:44:01 67° NE 20:51:18 14° ESE
Cosmos 1500 3.8 20:41:06 10° N 20:44:42 41° ENE 20:47:10 18° SE
Gbstr 26 Del rocket 4.4 20:38:06 10° WSW 20:46:04 87° N 20:52:52 10° ENE
Cosmos 1782 3.0 20:43:16 11° S 20:47:03 51° E 20:50:57 10° NNE
ERS-1 Rocket 3.3 20:50:52 16° SE 20:54:41 53° ENE 20:59:35 10° N
SPOT 5 3.3 20:52:52 17° SE 20:56:40 54° ENE 21:01:48 10° N
Cosmos 1503 Rocket 3.9 20:51:44 10° SSW 20:56:54 77° ESE 21:02:08 10° NNE
ERBS 4.5 20:55:44 10° WNW 20:58:35 26° N 21:01:26 10° NE
Intercosmos 24 4.4 20:55:33 10° SSW 20:59:14 53° WNW 21:02:46 10° N
SOZ 4.1 20:57:13 10° WSW 20:59:46 81° SSE 21:02:07 10° ENE
USA 290 3.6 20:57:28 10° NW 21:00:28 34° WSW 21:02:58 13° S
Cosmos 1271 Rocket 4.4 21:00:22 17° ESE 21:01:31 19° E 21:04:26 10° NE
Cosmos 1151 Rocket 3.0 20:58:09 10° S 21:02:29 76° E 21:06:53 10° NNE
CREW DRAGON DEMO-1 DEB 2.6 21:00:24 10° WNW 21:03:04 71° N 21:04:38 21° E
Cosmos 1602 4.0 20:59:16 10° NNW 21:03:05 64° W 21:06:20 14° S
Terra 2.4 21:02:23 19° SE 21:05:28 46° ENE 21:10:02 10° N
USA 307 3.2 21:03:31 10° WNW 21:07:47 66° NNE 21:11:25 14° E
Cosmos 2278 Rocket 2.9 21:05:44 18° SSE 21:09:07 32° ESE 21:14:04 10° NE
CZ-2C R/B 3.9 21:07:08 10° NNE 21:11:36 74° WNW 21:16:06 10° SSW
SL-4 R/B 4.5 21:16:32 10° WSW 21:18:50 14° SW 21:21:08 10° SSW
X-37B 1.9 21:17:25 10° WSW 21:20:04 24° SSW 21:20:09 24° S
Cosmos 1515 Rocket 3.7 21:17:35 22° SSE 21:20:14 55° E 21:24:33 10° NNE
SWARM C 4.4 21:17:54 10° N 21:21:14 89° E 21:22:53 28° S
USA 308 3.1 21:16:59 10° WNW 21:21:18 72° NNE 21:24:24 18° ESE
Cosmos 1844 Rocket 3.6 21:15:57 10° SW 21:21:20 50° NW 21:26:48 10° NNE
SWARM A 4.1 21:18:00 10° N 21:21:21 88° WSW 21:23:01 27° S
SPOT 1/Viking Rocket 4.2 21:16:46 12° S 21:21:27 52° W 21:26:33 10° NNW
Cosmos 2084 3.7 21:17:53 12° SSW 21:21:31 42° SE 21:25:33 10° NE
Cosmos 1536 4.2 21:18:48 10° NNE 21:22:14 26° ENE 21:23:48 20° ESE
ARIANE 5 R/B 2.9 21:20:39 18° S 21:23:45 63° WSW 21:28:04 10° NNW
JB-3 4.2 21:21:20 10° NNE 21:25:17 82° ESE 21:27:56 20° S
Cosmos 1437 2.4 21:25:46 29° SSW 21:27:03 81° W 21:29:55 10° N
Cosmos 1633 Rocket 4.0 21:23:38 10° NNW 21:27:50 45° W 21:31:23 14° SSW
Cosmos 1354 Rocket 4.2 21:23:01 10° SSW 21:28:15 72° WNW 21:33:32 10° NNE
Cosmos 2154 Rocket 4.5 21:23:11 10° N 21:29:20 49° ENE 21:33:02 23° SE
Cosmos 1812 2.6 21:31:31 26° S 21:33:35 77° E 21:37:27 10° NNE
Cosmos 1470 Rocket 3.9 21:32:42 10° NNW 21:37:08 62° W 21:39:57 22° S
Cosmos 2184 Rocket 4.0 21:31:12 10° N 21:37:28 76° E 21:41:19 25° SSE
Meteor 1-5 Rocket 4.1 21:33:13 10° NNW 21:38:41 80° W 21:42:00 24° S
Cosmos 1328 Rocket 4.2 21:36:50 11° SSW 21:41:03 56° WNW 21:45:25 10° N
NOSS 3-4 (A) 3.9 21:34:57 10° NW 21:41:49 77° NE 21:47:02 22° SE
NOSS 3-4 (C) 3.9 21:35:04 10° NW 21:41:55 76° NE 21:47:09 22° SE
ATLAS 5 CENTAUR R/B 3.4 21:38:14 10° WNW 21:43:20 35° WSW 21:47:13 19° S
Cosmos 2074 Rocket 4.0 21:39:06 10° N 21:45:27 87° E 21:49:23 25° S
Cosmos 1666 2.7 21:47:06 10° NNW 21:50:50 70° W 21:52:12 36° S
Cosmos 1933 Rocket 3.8 21:47:23 10° NNW 21:51:43 65° W 21:53:49 29° S
NOSS 3-3 (A) 3.9 21:46:38 10° SW 21:52:28 86° SE 21:59:15 10° NE
NOSS 3-3 (C) 3.9 21:46:44 10° SW 21:52:35 86° SE 21:59:20 10° NE
Cosmos 1833 Rocket 2.9 21:47:07 10° NW 21:52:44 65° WSW 21:55:42 28° S
Nadezhda 1 Rocket 4.2 21:51:52 27° SSE 21:55:17 58° E 22:01:24 10° NNE
ATLAS 2AS CENTAUR R/B 3.1 21:47:58 10° NW 21:55:27 62° NE 22:00:32 20° ESE
Meteor 2-12 Rocket 4.4 21:49:40 10° N 21:55:47 79° ENE 21:59:01 29° SSE
Cosmos 1743 3.9 21:52:35 10° N 21:56:01 30° ENE 21:56:52 27° E
BREEZE-M DEB (TANK) 2.8 21:56:58 10° W 21:57:58 25° WSW 21:57:58 25° WSW
Cosmos 1538 Rocket 4.3 21:56:02 10° NNW 22:01:20 61° WSW 22:03:56 30° S
BREEZE-M DEB (TANK) 3.4 21:53:26 10° W 22:02:05 74° NNW 22:04:41 12° ENE
USA 215 3.7 21:56:02 10° E 22:02:27 62° NNE 22:08:54 10° WNW
USA 305 2.8 21:59:04 10° WNW 22:03:21 74° SSW 22:04:41 42° SE
Iridium 4 Rocket 4.0 22:01:47 21° SSW 22:05:41 70° W 22:11:37 10° N
Cosmos 1610 Rocket 4.4 22:01:20 10° N 22:07:31 84° E 22:10:38 31° SSE
Cosmos 158 Rocket 3.8 22:08:47 10° NNW 22:13:40 74° WSW 22:15:28 39° S
Cosmos 1733 Rocket 4.0 22:10:55 10° N 22:14:56 35° ENE 22:16:02 30° ESE
SJ 16-02 1.3 22:15:14 33° SSW 22:17:13 88° WNW 22:21:42 10° NNE
Cosmos 2228 Rocket 3.0 22:17:34 39° SSW 22:19:10 88° W 22:23:40 10° N
Cosmos 1680 Rocket 3.6 22:13:59 10° NNW 22:19:20 73° ENE 22:21:27 37° SE
Cosmos 2341 Rocket 4.3 22:13:51 10° N 22:20:12 60° ENE 22:23:08 32° SE
Meteor 1-27 Rocket 3.7 22:18:37 32° S 22:21:27 78° E 22:27:22 10° NNE
USA 306 2.9 22:18:13 10° WNW 22:22:26 60° SSW 22:23:05 52° S
COSMOS 2406 4.1 22:18:03 10° NW 22:23:17 39° WSW 22:25:47 26° SSW
Cosmos 1818 4.3 22:18:56 10° NW 22:24:16 48° NE 22:27:40 21° ESE
Cosmos 1937 Rocket 4.4 22:24:06 28° ESE 22:24:39 29° E 22:29:03 10° NE
Cosmos 2082 Rocket 2.3 22:20:33 10° NNW 22:26:09 67° WSW 22:28:19 37° S
H-2A R/B 4.4 22:27:55 10° N 22:31:56 45° WNW 22:34:16 22° SW
CZ-4C R/B 3.6 22:25:49 10° NW 22:32:36 43° WSW 22:36:28 27° S
Gbstr 26 Del rocket 4.1 22:26:11 10° W 22:33:44 84° N 22:39:55 10° E
ERBS 3.9 22:32:17 10° NW 22:35:20 33° NNE 22:37:04 20° ENE
Cosmos 1271 Rocket 3.8 22:35:27 27° SW 22:37:12 43° WNW 22:41:04 10° N
Cosmos 2218 Rocket 4.3 22:33:16 10° N 22:39:26 55° ENE 22:42:06 33° SE
Meteor 1-11 Rocket 4.5 22:36:39 10° NNW 22:42:23 48° W 22:45:14 28° SSW
Terra 3.4 22:41:15 19° SW 22:43:25 26° W 22:47:27 10° NW
Okean 1 3.7 22:46:34 48° ESE 22:46:43 48° E 22:50:35 10° NNE
USA 307 3.3 22:43:36 10° WNW 22:47:31 45° SW 22:47:31 45° SW
Cosmos 1340 Rocket 2.9 22:45:01 10° NNW 22:49:04 65° W 22:49:40 56° SW
Cosmos 2278 Rocket 2.9 22:47:28 10° SW 22:52:59 52° NW 22:58:33 10° NNE
Cosmos 923 Rocket 4.5 22:49:20 10° NNW 22:54:22 49° WSW 22:55:53 38° SSW
Spot 4 3.8 22:53:27 50° S 22:54:44 81° WSW 22:59:39 10° NNW
Cosmos 1544 3.7 22:51:33 10° NNW 22:55:01 44° W 22:55:12 44° WSW
Cosmos 1515 3.6 22:55:28 70° E 22:55:29 70° E 22:59:16 10° NNE
Cosmos 1862 Rocket 3.7 22:57:00 53° ESE 22:57:26 56° E 23:01:40 10° NNE
Cosmos 1536 4.0 22:55:02 10° NNW 22:58:42 33° W 22:59:30 30° WSW
Cosmos 1898 Rocket 3.5 22:57:39 47° S 22:59:09 72° ESE 23:04:29 10° NNE
USA 308 3.8 22:57:08 10° WNW 23:00:30 35° WSW 23:00:30 35° WSW
Cosmos 2369 Rocket 3.3 23:03:27 27° ESE 23:04:01 27° ESE 23:08:42 10° NE
RESURS DK-1 4.2 23:04:10 10° NNW 23:07:42 26° NE 23:09:53 17° E
Gblst 52 Del rocket 4.4 23:01:21 10° WNW 23:08:22 89° N 23:14:26 10° ESE
COBE Rocket 4.1 23:07:04 44° SE 23:08:31 64° ENE 23:13:36 10° N
Meteor 2-9 Rocket 4.2 23:02:50 10° NNW 23:08:43 87° ENE 23:10:35 45° SSE
SL-8 Rocket 4.0 23:02:47 10° N 23:09:10 83° W 23:11:34 41° S
Cosmos 1975 2.8 23:07:58 10° N 23:11:57 69° ENE 23:12:12 66° ESE
Cosmos 2084 Rocket 3.4 23:08:19 10° NW 23:12:35 83° NE 23:13:20 61° ESE
Cosmos 1943 Rocket 2.3 23:11:55 46° SSE 23:13:07 55° ESE 23:18:37 10° NE
SAR-Lupe-2 4.0 23:11:22 10° NNE 23:14:31 50° ENE 23:14:31 50° ENE
ALOS 2 2.5 23:16:05 65° S 23:16:43 84° WSW 23:21:09 10° NNW
Cosmos 44 3.5 23:14:18 10° NW 23:19:42 64° SW 23:20:48 51° S
DNEPR-1 R/B 4.2 23:19:56 48° SSE 23:20:49 53° SE 23:25:40 10° NE
Cosmos 1707 Rocket 4.2 23:20:01 39° WSW 23:21:08 49° WNW 23:25:26 10° N
Meteor 2-4 Rocket 4.1 23:20:31 41° SE 23:22:04 53° E 23:27:34 10° NNE
Cosmos 990 Rocket 4.3 23:20:02 34° SW 23:22:14 65° WNW 23:27:30 10° NNE
Okean 1-7 3.6 23:30:15 42° ESE 23:30:29 42° E 23:34:33 10° NNE
Cosmos 372 Rocket 4.0 23:30:37 51° SE 23:31:23 57° ESE 23:36:24 10° NNE
Cosmos 1743 4.2 23:28:28 10° NNW 23:31:40 25° W 23:31:55 25° W
Cosmos 1238 Rocket 4.3 23:28:29 10° NNW 23:34:40 52° W 23:36:39 37° SW
Meteor 1-18 Rocket 4.2 23:33:04 46° SSW 23:34:51 86° WNW 23:40:30 10° NNE
SL-24 R/B - RUBIN 2 4.3 23:31:46 10° NW 23:37:01 46° WSW 23:37:29 45° SW
SeaSat 1 2.9 23:33:09 10° NE 23:37:52 42° ESE 23:38:19 41° SE
Cosmos 2242 Rocket 3.7 23:40:22 57° SE 23:40:48 60° E 23:45:12 10° NNE
USA 215 3.2 23:42:21 33° SE 23:45:28 68° SW 23:52:01 10° WNW
ATLAS 2AS CENTAUR R/B 3.2 23:39:24 10° NW 23:46:11 42° WSW 23:47:56 36° SSW
Cosmos 2297 3.9 23:45:51 34° SW 23:48:22 68° WNW 23:54:03 10° NNE
Cosmos 1733 Rocket 4.4 23:48:59 10° NNW 23:52:36 26° W 23:53:07 26° W
SJ 16-02 4.0 23:53:52 10° W 23:56:30 15° NW 23:59:08 10° N
